[[{"header":{"parameterUnit":"m.s-1","parameterCategory":1,"la1":30.2992,"la2":30.254,"lo1":-89.0895,"lo2":-89.0443,"dy":0.0025,"dx":0.0025,"nx":19,"ny":19,"refTime":"2026-04-04T09:00:00:Z","depth":0,"parameterNumber":2,"parameterNumberName":"U-component_of_WINDS"},"data":[0,0,0,2.0017,2.0019,2.0089,2.0089,2.0189,2.019,0,0,0,0,0,0,0,0,0,0,0,2.0003,2.0004,2.0017,2.0019,2.0089,2.0089,2.0189,2.019,0,0,0,0,0,0,0,0,0,0,0,2.0003,2.0004,2.0005,2.0019,2.0089,2.0089,2.0189,2.0132,0,0,0,0,0,0,0,0,0,0,2.0062,2.0056,2.0004,2.0005,2.002,2.0089,2.0089,2.0129,2.0135,2.0162,0,2.0188,0,2.0191,2.0197,2.0198,0,0,0,2.0013,2.0051,2.0064,2.0005,2.002,2.0089,2.0056,2.0132,2.014,2.017,2.0189,2.0193,2.0192,2.0198,2.0199,2.037,2.0371,0,0,2.001,2.002,2.0059,2.0069,2.006,2.0054,2.0058,2.0137,2.0158,2.019,2.0195,2.0194,2.0199,2.02,2.0369,2.037,0,0,0,2.0002,2.0017,2.0028,2.0065,2.0077,2.0056,2.0061,2.0154,2.0157,2.0196,2.0195,2.0199,2.0201,2.0368,2.0369,2.043,0,0,0,1.9999,2.0013,2.0026,2.0033,2.0076,2.0117,2.0077,2.0151,2.016,2.0195,2.0199,2.0202,2.0367,2.0369,2.0426,2.0457,0,0,0,1.9996,2.0012,2.0025,2.0033,2.0064,2.0115,2.0122,2.0153,2.016,2.0198,2.0202,2.0366,2.0368,2.0422,2.0451,2.0504,0,0,0,1.9996,2.0079,2.0026,2.0119,2.0064,2.0153,2.0121,2.0188,2.0228,2.02,2.0367,2.0369,2.0421,2.0447,2.05,2.0549,2.0571,0,0,2.0106,2.0093,2.0146,2.0101,2.0202,2.0141,2.0251,2.0279,2.0273,2.0338,2.0342,2.0428,2.0451,2.0503,2.0693,2.071,0,0,0,2.0185,2.0223,2.0248,2.0287,2.031,2.0331,2.034,2.035,2.0404,2.0309,2.0461,2.0475,2.0505,2.0528,2.0543,2.0567,2.0381,2.038,2.038,2.0355,2.0343,2.043,2.0427,2.0465,2.0473,2.0502,2.0517,2.0494,2.0531,2.0549,2.0666,2.0693,2.0704,2.073,2.0576,2.0576,2.0576,2.0576,2.0514,2.0566,2.0534,2.0607,2.0594,2.0654,2.0665,2.0647,2.0701,2.0651,2.0677,2.0623,2.0724,2.0745,2.0581,2.058,2.0579,2.0579,2.0579,2.0623,2.0645,2.0656,2.071,2.0753,2.0747,2.08,2.0786,2.0773,2.0799,2.0816,2.0815,2.0811,2.0809,2.0809,2.081,2.081,2.081,2.081,2.073,2.0741,2.0787,2.0819,2.0841,2.0868,2.0877,2.0898,2.0918,2.0904,2.0904,2.0876,2.0737,2.0701,2.0817,2.0816,2.0815,2.0814,2.0814,2.0893,2.0854,2.0926,2.0949,2.0983,2.1025,2.1008,2.1052,2.1067,2.1094,2.1061,2.096,2.0945,2.0933,2.0903,2.1064,2.1064,2.1064,2.1064,2.0983,2.0975,2.1045,2.1081,2.1115,2.1106,2.1186,2.1194,2.1195,2.1203,2.1178,2.1138,2.1127,2.1118,2.1102,2.1074,2.1275,2.1275,2.1275,2.1082,2.1076,2.1147,2.1148,2.1174,2.1196,2.127,2.1312,2.1305,2.1283,2.1209,2.12,2.1135,2.1115,2.1089,2.1065,2.1013,0,0]},{"header":{"parameterUnit":"m.s-1","parameterCategory":1,"la1":30.2992,"la2":30.254,"lo1":-89.0895,"lo2":-89.0443,"dy":0.0025,"dx":0.0025,"nx":19,"ny":19,"refTime":"2026-04-04T09:00:00:Z","depth":0,"parameterNumber":3,"parameterNumberName":"V-component_of_WINDS"},"data":[0,0,0,2.2231,2.2235,2.2446,2.2447,2.2708,2.271,0,0,0,0,0,0,0,0,0,0,0,2.2162,2.2164,2.2231,2.2236,2.2446,2.2447,2.2707,2.271,0,0,0,0,0,0,0,0,0,0,0,2.2162,2.2164,2.2165,2.2237,2.2446,2.2447,2.2707,2.2551,0,0,0,0,0,0,0,0,0,0,2.2348,2.2278,2.2163,2.2166,2.2238,2.2446,2.2447,2.2544,2.2561,2.2608,0,2.2648,0,2.2683,2.2727,2.2728,0,0,0,2.2241,2.2264,2.2327,2.2166,2.224,2.2446,2.2353,2.2554,2.2573,2.2631,2.2651,2.2661,2.2687,2.2728,2.273,2.2984,2.2984,0,0,2.2229,2.2197,2.2313,2.2339,2.2305,2.2346,2.2359,2.2565,2.2586,2.2652,2.2668,2.2691,2.273,2.2732,2.2983,2.2984,0,0,0,2.2192,2.2189,2.2246,2.2328,2.2366,2.2352,2.2367,2.2577,2.2598,2.2671,2.2694,2.2731,2.2735,2.2982,2.2983,2.2999,0,0,0,2.2186,2.2167,2.2241,2.2224,2.2362,2.2474,2.2374,2.2584,2.2609,2.2693,2.2732,2.2737,2.2981,2.2982,2.2996,2.3012,0,0,0,2.2151,2.2163,2.2192,2.2221,2.2311,2.2472,2.2505,2.259,2.2623,2.2728,2.2738,2.298,2.2982,2.2994,2.3008,2.3069,0,0,0,2.2105,2.2203,2.2191,2.231,2.2309,2.2479,2.2504,2.2633,2.2725,2.2733,2.2981,2.2983,2.2993,2.3006,2.3067,2.3115,2.3132,0,0,2.2211,2.2214,2.2287,2.2283,2.2447,2.245,2.2617,2.2732,2.2772,2.2911,2.2918,2.2997,2.3008,2.3069,2.324,2.3253,0,0,0,2.231,2.2362,2.2412,2.2498,2.2587,2.2666,2.2758,2.2801,2.2921,2.2836,2.3037,2.3044,2.3081,2.3106,2.3118,2.3152,2.2993,2.2993,2.2993,2.2414,2.2459,2.2583,2.2653,2.2736,2.283,2.2902,2.2976,2.2997,2.3044,2.3086,2.3183,2.3211,2.322,2.3255,2.3115,2.3115,2.3115,2.3115,2.2574,2.2654,2.2681,2.2809,2.2857,2.2966,2.3062,2.3073,2.3183,2.3156,2.3191,2.3157,2.3233,2.3266,2.3117,2.3116,2.3116,2.3116,2.3116,2.2647,2.2693,2.2743,2.2872,2.2966,2.3035,2.3138,2.3178,2.3216,2.3251,2.33,2.33,2.3305,2.3271,2.3272,2.3272,2.3272,2.3273,2.3273,2.2703,2.2759,2.2841,2.2944,2.3005,2.3089,2.3185,2.3247,2.3324,2.3345,2.3346,2.3363,2.3232,2.3198,2.3278,2.3277,2.3277,2.3276,2.3276,2.2848,2.2822,2.2948,2.3009,2.3134,2.3225,2.3275,2.3396,2.3452,2.3502,2.3513,2.3408,2.3415,2.3407,2.3379,2.3502,2.3502,2.3502,2.3502,2.291,2.2917,2.3056,2.315,2.3247,2.3304,2.3447,2.3524,2.3598,2.3636,2.3625,2.3591,2.3581,2.3594,2.3581,2.3556,2.3721,2.3721,2.3722,2.3002,2.302,2.3134,2.3206,2.3307,2.3393,2.3529,2.3637,2.3717,2.3731,2.3667,2.3658,2.3605,2.3585,2.3598,2.3577,2.3532,0,0]}]]